This is the latest recevied weather packets stored in our database for station/object EB2EMZ-5. If no packets are shown the sender has not sent any weather packets the latest 10 day(s).
| Time | Temp. | Humidity | Pressure | Rain* | Wind** | Luminosity | Snow |
|---|---|---|---|---|---|---|---|
| 1777843128 | 25° C | 32% | 997.7 hPa | - | - | - | - |
| 1777842828 | 25° C | 31% | 997.6 hPa | - | - | - | - |
| 1777842528 | 25° C | 31% | 997.6 hPa | - | - | - | - |
| 1777842228 | 25° C | 31% | 997.6 hPa | - | - | - | - |
| 1777841928 | 25° C | 31% | 997.5 hPa | - | - | - | - |
| 1777841628 | 25° C | 31% | 997.3 hPa | - | - | - | - |
| 1777841328 | 25° C | 31% | 997.1 hPa | - | - | - | - |
| 1777841028 | 25.56° C | 31% | 997 hPa | - | - | - | - |
| 1777840728 | 25.56° C | 30% | 997 hPa | - | - | - | - |
| 1777840428 | 25.56° C | 31% | 996.8 hPa | - | - | - | - |
| 1777840128 | 25.56° C | 30% | 996.7 hPa | - | - | - | - |
| 1777839828 | 25.56° C | 30% | 996.7 hPa | - | - | - | - |
| 1777839528 | 26.11° C | 30% | 996.5 hPa | - | - | - | - |
| 1777839228 | 26.11° C | 29% | 996.6 hPa | - | - | - | - |
| 1777838928 | 26.11° C | 29% | 996.5 hPa | - | - | - | - |
| 1777838628 | 26.67° C | 29% | 996.4 hPa | - | - | - | - |
| 1777838328 | 26.67° C | 29% | 996.5 hPa | - | - | - | - |
| 1777838028 | 27.22° C | 29% | 996.6 hPa | - | - | - | - |
| 1777837728 | 27.22° C | 28% | 996.5 hPa | - | - | - | - |
| 1777837428 | 27.78° C | 28% | 996.5 hPa | - | - | - | - |
| 1777837128 | 27.78° C | 27% | 996.4 hPa | - | - | - | - |
| 1777836828 | 28.33° C | 27% | 996.5 hPa | - | - | - | - |
| 1777836528 | 28.89° C | 27% | 996.6 hPa | - | - | - | - |
| 1777836228 | 30° C | 26% | 996.6 hPa | - | - | - | - |
| 1777835928 | 31.11° C | 26% | 996.5 hPa | - | - | - | - |
* Rain since midnight (hover to see other rain measurements)
** Current wind speed in m/s (hover to see current wind gust speed)